Weather in La Fria

Venezuela     8°14′17″N   72°16′12″W
temp.,
°C
wind,
m/s
gust,
m/s
humid.,
%
clouds,
%
prec.,
mm/h
press.,
hPa
HPBL,
m
13 may, thu
thu1323:00+22sse229074 1.8 101341
02:00+22sse118297 1.8 101122
05:00+22sse1179100 0.0 101115
08:00+24w1173100 0.0 1012123
11:00+29nw215678 0.0 1012717
14:00+33nne4344100 0.0 10081387
17:00+31nne3455100 0.0 1007999
20:00+25sse217933 0.3 101023
14 may, fri
fri1423:00+23sse228061 0.4 101233
02:00+22sse11706 0.4 101022
05:00+22sse117140 0.0 101120
08:00+24wnw0066100 0.0 101293
11:00+30n215199 0.0 1012700
14:00+33nne434322 0.0 10081411
17:00+32n335030 0.1 10071273
20:00+26sse217389 0.3 100927
15 may, sat
sat1523:00+23sse228879 1.2 101231
02:00+23se0183100 1.3 101116
05:00+22s1181100 0.0 101113
08:00+24w1178100 0.0 1013123
11:00+29nnw2161100 0.0 1012789
14:00+33n335155 0.1 10081312
17:00+32n235470 0.6 10071238
20:00+26sse227946 2.6 100933
16 may, sun
sun1623:00+23s2292100 4.9 101150
02:00+22se1192100 6.3 101116
05:00+22s1190100 0.0 101113
08:00+24sw0183100 0.0 101399
11:00+28nnw1169100 0.0 1013535
14:00+32nnw225599 0.6 10091208
17:00+29nnw127171 1.6 1008143
20:00+25s228892 3.7 101029
17 may, mon
mon1723:00+23sse1191100 5.1 101222
02:00+22sse119398 7.6 101117
05:00+22s1192100 0.3 101120
08:00+24sw1186100 0.4 1013100
11:00+29nw216490 0.0 1012714
14:00+32nnw335583 0.1 10091273
17:00+29nne1371100 1.4 1008574
20:00+25se228869 2.5 101040